Location: Auttagershofen
(48.1940°N, 10.0237°E)
Time: 22:39:40
(UTC+00:00)

Lacrosse 5 rocket - Pass Details

Date: 19 April 2026
Orbit: 390 x 471 km, 57.0° (Epoch: 19 May)

Event Time Altitude Azimuth Distance (km) Brightness Sun altitude
Rises 22:22:50 0° 308° (NW) 2,289 5.2 -29.1°
Reaches altitude 10° 22:24:56 10° 313° (NW) 1,433 4.1 -29.2°
Enters shadow 22:25:06 11° 314° (NW) 1,365 4.0 -29.2°
